User: anonymous   Login
Location: Unspecified
(0.0000°N, 0.0000°E)
Time: 21:35:22
(UTC+00:00)
Language:

COSMOS 2498 - Orbit

View from above orbital plane
View from above orbital plane
View from above satellite
View from above satellite

Ground track
Ground track

The orbit data is extracted from the following two-line orbital elements,

1 39763U 14028C   24108.13962695  .00000059  00000-0  35811-3 0  9994
2 39763  82.4451 244.3823 0020336 359.8090   0.2978 12.42937285449318
Epoch (UTC): 17 April 2024 03:21:03
Eccentricity: 0.0020336
inclination: 82.4451°
perigee height: 1478 km
apogee height: 1510 km
right ascension of ascending node: 244.3823°
argument of perigee: 359.8090°
revolutions per day: 12.42937285
mean anomaly at epoch: 0.2978°
orbit number at epoch: 44931

The dashed part of the orbit path shows where the satellite is in the earth's shadow,  

DLR